Alturas, CA

12:41 AM PST on December 08, 2019 (GMT -0800)
Alturas Municipal

Weather History for KAAT - October, 2019

Change the Weather History Date:

Monday, October 28, 2019

  Actual Average Record
Temperature  
Mean Temperature 32 °F 43 °F  
Max Temperature 57 °F 59 °F 82 °F (1968)
Min Temperature 8 °F 26 °F 13 °F (1948)
Degree Days  
Heating Degree Days 32 22  
Month to date heating degree days 598 497  
Since 1 July heating degree days 904 874  
Cooling Degree Days 0 0  
Month to date cooling degree days 0 0  
Year to date cooling degree days 217 156  
Moisture  
Dew Point 6 °F    
Average Humidity 38    
Maximum Humidity 77    
Minimum Humidity 9    
Precipitation  
Precipitation 0.00 in 0.05 in 0.86 in (2004)
Month to date precipitation 0.31 0.86  
Year to date precipitation 12.54 10.52  
Sea Level Pressure  
Sea Level Pressure 30.14 in    
Wind  
Wind Speed 2 mph ()    
Max Wind Speed 15 mph    
Max Gust Speed 18 mph    
Visibility 9.5 miles    
Events      
T = Trace of Precipitation, MM = Missing Value Source: Averaged Metar Reports

Daily Weather History Graph

Daily Weather History Graph

Search for Another Location

Airport or City:

Astronomy

Oct. 28, 2019 Rise Set
Actual Time 7:29 AM PDT 6:02 PM PDT
Civil Twilight 7:00 AM PDT 6:30 PM PDT
Nautical Twilight 6:27 AM PDT 7:03 PM PDT
Astronomical Twilight 5:55 AM PDT 7:35 PM PDT
Moon 7:56 AM PDT (10/28) 6:50 PM PDT (10/28)
Length of Visible Light 11h 30m
Length of Day
10h 33m
New Moon, 1% of the Moon is Illuminated
Oct 28
New Moon
Nov 4
First Quarter
Nov 12
Full
Nov 19
Last Quarter
Nov 26
New

Hourly Weather History & Observations

Time (PDT) Temp. Windchill Dew Point Humidity Pressure Visibility Wind Dir Wind Speed Gust Speed Precip Events Conditions
12:55 AM 19.9 °F - 8.1 °F 60% 30.27 in 10.0 mi Calm Calm - N/A   Clear
1:55 AM 17.1 °F - 5.0 °F 59% 30.27 in 10.0 mi Calm Calm - N/A   Clear
3:55 AM 14.0 °F - 6.1 °F 71% 30.27 in 5.0 mi Calm Calm - N/A   Haze
4:55 AM 12.0 °F - 5.0 °F 73% 30.26 in 7.0 mi Calm Calm - N/A   Clear
5:55 AM 12.0 °F - 5.0 °F 73% 30.27 in 10.0 mi Calm Calm - N/A   Clear
6:55 AM 10.9 °F - 5.0 °F 77% 30.28 in 9.0 mi Calm Calm - N/A   Clear
7:55 AM 12.0 °F - 5.0 °F 73% 30.28 in 8.0 mi Calm Calm - N/A   Clear
8:55 AM 24.1 °F - 10.0 °F 55% 30.24 in 9.0 mi Calm Calm - N/A   Clear
9:55 AM 30.9 °F - 10.0 °F 42% 30.22 in 10.0 mi Calm Calm - N/A   Clear
10:55 AM 36.0 °F - 8.1 °F 31% 30.20 in 10.0 mi Calm Calm - N/A   Clear
11:55 AM 42.1 °F 40.2 °F 8.1 °F 25% 30.16 in 10.0 mi West 3.5 mph - N/A   Clear
12:55 PM 46.0 °F - 1.9 °F 16% 30.13 in 10.0 mi Calm Calm - N/A   Clear
1:55 PM 51.1 °F - -0.0 °F 12% 30.08 in 10.0 mi North - - N/A   Clear
2:55 PM 54.0 °F - 5.0 °F 14% 30.04 in 10.0 mi West 5.8 mph - N/A   Clear
3:55 PM 55.9 °F - 1.9 °F 11% 30.03 in 10.0 mi West 6.9 mph - N/A   Clear
4:55 PM 55.0 °F - -2.9 °F 9% 30.00 in 10.0 mi NW 10.4 mph - N/A   Clear
5:55 PM 51.1 °F - 3.9 °F 15% 30.01 in 10.0 mi NNW 11.5 mph - N/A   Clear
6:55 PM 45.0 °F 43.5 °F 7.0 °F 21% 30.03 in 10.0 mi NNW 3.5 mph - N/A   Clear
7:55 PM 42.1 °F 39.2 °F 8.1 °F 25% 30.05 in 10.0 mi SW 4.6 mph - N/A   Clear
8:55 PM 41.0 °F 39.0 °F 9.0 °F 27% 30.02 in 10.0 mi WSW 3.5 mph - N/A   Clear
9:55 PM 39.9 °F 35.1 °F 8.1 °F 27% 30.02 in 10.0 mi West 6.9 mph - N/A   Clear
10:55 PM 36.0 °F - 7.0 °F 30% 30.03 in 10.0 mi Calm Calm - N/A   Clear
11:55 PM 39.0 °F 36.8 °F 9.0 °F 29% 30.02 in 10.0 mi Variable 3.5 mph - N/A   Clear